[[{"header":{"parameterUnit":"m.s-1","parameterCategory":2,"la1":30.2991,"la2":30.254,"lo1":-89.0895,"lo2":-89.0444,"dy":0.0017,"dx":0.0017,"nx":28,"ny":28,"refTime":"2026-01-31T03:00:00:Z","depth":"0","parameterNumber":2,"parameterNumberName":"U-component_of_CURRENTS"},"data":[0,0,0,0,0,0,0,0,0,0,0,0,0,0,0,0,0,0,0,0,0,0,0,0,0,0,0,0,0,0,0,0,0,0,0,0,0,0,0,0,0,0,0,0,0,0,0,0,0,0,0,0,0,0,0,0,0,0,-0.2722,-0.2722,0,-0.2748,-0.2748,-0.2748,-0.2716,-0.2715,-0.2714,-0.2713,-0.2723,-0.2724,-0.2725,0,0,0,0,0,0,0,0,0,0,0,0,0,-0.2656,-0.2657,-0.2722,-0.2722,-0.2723,-0.2748,-0.2748,-0.2748,-0.2716,-0.2715,-0.2714,-0.2713,-0.2722,-0.2724,-0.2725,0,0,0,0,0,0,0,0,0,0,0,0,0,-0.2681,-0.2657,-0.2722,-0.2712,-0.2711,-0.2748,-0.2748,-0.2748,-0.2717,-0.2715,-0.2714,-0.2712,-0.2722,-0.2723,-0.2725,-0.2765,0,0,-0.273,-0.2731,0,0,0,0,0,0,0,0,-0.268,-0.2683,-0.2713,-0.2713,-0.2712,-0.2729,-0.2728,-0.2754,-0.2717,-0.2712,-0.2713,-0.2712,-0.2726,-0.2727,-0.2732,-0.2765,-0.2766,-0.2731,-0.2732,-0.2732,-0.2733,0,0,0,0,0,0,0,-0.2678,-0.2682,-0.273,-0.2714,-0.2713,-0.271,-0.2712,-0.2733,-0.2725,-0.2712,-0.2711,-0.2718,-0.2725,-0.2731,-0.2732,-0.2766,-0.273,-0.2732,-0.2733,-0.2734,-0.2803,-0.2803,0,0,0,0,0,0,-0.2681,-0.2681,-0.2729,-0.2731,-0.2695,-0.2713,-0.2714,-0.2723,-0.2725,-0.2724,-0.2719,-0.2716,-0.2728,-0.273,-0.2732,-0.2755,-0.2732,-0.2734,-0.2735,-0.2802,-0.2803,-0.2804,0,0,0,0,0,0,-0.268,-0.2685,-0.2728,-0.2708,-0.2713,-0.2715,-0.2726,-0.2725,-0.2724,-0.273,-0.2729,-0.2718,-0.2727,-0.273,-0.2747,-0.2756,-0.2735,-0.2736,-0.2801,-0.2802,-0.2803,-0.2816,0,0,0,0,0,0,-0.2678,-0.2685,-0.2687,-0.2708,-0.2715,-0.2749,-0.2727,-0.2726,-0.2732,-0.2728,-0.273,-0.2729,-0.2726,-0.2744,-0.2748,-0.2758,-0.2738,-0.28,-0.2802,-0.2803,-0.2815,-0.2818,-0.282,0,0,0,0,0,-0.2675,-0.269,-0.2688,-0.2693,-0.272,-0.275,-0.2753,-0.2747,-0.2733,-0.2739,-0.2737,-0.2729,-0.2756,-0.2747,-0.2751,-0.2761,-0.2799,-0.2801,-0.2803,-0.2813,-0.2817,-0.282,0,0,0,0,0,0,-0.2665,-0.2689,-0.2686,-0.2707,-0.2726,-0.2745,-0.2751,-0.2751,-0.2755,-0.2747,-0.2744,-0.2745,-0.2762,-0.2766,-0.2755,-0.2786,-0.2775,-0.2778,-0.2782,-0.2785,-0.2788,-0.2782,-0.2739,0,0,0,0,0,-0.2666,-0.2677,-0.2703,-0.2717,-0.2728,-0.2739,-0.2748,-0.275,-0.276,-0.2759,-0.2761,-0.2765,-0.2778,-0.2782,-0.2794,-0.2818,-0.2804,-0.2826,-0.2829,-0.2831,-0.2831,-0.2821,-0.2822,-0.281,-0.281,-0.281,0,0,-0.2665,-0.268,-0.2685,-0.2715,-0.2726,-0.2749,-0.274,-0.2759,-0.2772,-0.2763,-0.2774,-0.2778,-0.2787,-0.2806,-0.2814,-0.2807,-0.2827,-0.2833,-0.2835,-0.2833,-0.2823,-0.2824,-0.2825,-0.2811,-0.2811,-0.281,0,0,-0.2672,-0.2684,-0.2695,-0.2716,-0.274,-0.2753,-0.276,-0.2782,-0.2782,-0.2805,-0.2796,-0.2805,-0.2826,-0.283,-0.2836,-0.2865,-0.2843,-0.2868,-0.2877,-0.2868,-0.2868,-0.2868,-0.2846,-0.2844,-0.2868,-0.2868,-0.2868,0,-0.2668,-0.2686,-0.2704,-0.2725,-0.2739,-0.2756,-0.2775,-0.2791,-0.2812,-0.2816,-0.2808,-0.2831,-0.2838,-0.2856,-0.2862,-0.2871,-0.2854,-0.2862,-0.2869,-0.2869,-0.287,-0.2846,-0.2844,-0.2869,-0.2869,-0.2869,-0.2869,0,-0.2685,-0.27,-0.2712,-0.274,-0.2762,-0.2782,-0.2812,-0.2827,-0.283,-0.284,-0.2855,-0.2864,-0.2871,-0.2879,-0.2881,-0.2889,-0.2873,-0.2873,-0.2857,-0.2871,-0.2846,-0.2844,-0.287,-0.287,-0.2869,-0.2869,0,0,-0.2661,-0.2711,-0.2711,-0.2723,-0.2768,-0.2786,-0.2819,-0.2846,-0.2855,-0.2873,-0.2879,-0.2902,-0.2895,-0.2902,-0.2902,-0.2898,-0.2886,-0.2885,-0.2884,-0.2855,-0.285,-0.2764,-0.2753,-0.2882,-0.2882,-0.2882,-0.2829,0,-0.2659,-0.269,-0.2721,-0.2749,-0.2766,-0.28,-0.2828,-0.2856,-0.2874,-0.2888,-0.2898,-0.2908,-0.2908,-0.2906,-0.2904,-0.2898,-0.2881,-0.2899,-0.2847,-0.2846,-0.2761,-0.2748,-0.2622,-0.2558,-0.2826,-0.2826,-0.2826,0,-0.2652,-0.2674,-0.2699,-0.2742,-0.2753,-0.2775,-0.2809,-0.2838,-0.2874,-0.2888,-0.2901,-0.2909,-0.2918,-0.2909,-0.2892,-0.2901,-0.2873,-0.2861,-0.2858,-0.2771,-0.2755,-0.2589,-0.2543,-0.2507,-0.2821,-0.2822,-0.2822,0,-0.2602,-0.2652,-0.2664,-0.2681,-0.2741,-0.2752,-0.278,-0.2825,-0.2843,-0.288,-0.2891,-0.2906,-0.2904,-0.2889,-0.2872,-0.2877,-0.284,-0.2844,-0.2736,-0.2729,-0.2608,-0.259,-0.2512,-0.2812,-0.2812,-0.2813,-0.2813,0,-0.2576,-0.2583,-0.2638,-0.2644,-0.2656,-0.2714,-0.2728,-0.2765,-0.281,-0.2819,-0.2875,-0.2875,-0.2896,-0.2884,-0.2866,-0.2787,-0.2831,-0.2725,-0.2706,-0.2608,-0.2592,-0.2545,-0.2568,-0.2811,-0.2811,-0.2811,-0.2812,0,-0.2505,-0.2549,-0.2561,-0.2616,-0.263,-0.2633,-0.2687,-0.2691,-0.2759,-0.2772,-0.2782,-0.2841,-0.2823,-0.2832,-0.2804,-0.2759,-0.2647,-0.267,-0.2546,-0.2513,-0.236,-0.239,-0.2299,-0.2225,-0.2529,-0.2526,-0.2524,0,-0.2466,-0.2466,-0.2514,-0.2511,-0.2528,-0.255,-0.2555,-0.264,-0.2652,-0.2735,-0.2725,-0.2745,-0.2724,-0.2669,-0.2607,-0.2541,-0.254,-0.2377,-0.2361,-0.2318,-0.2339,-0.2366,-0.2314,-0.2207,-0.2203,-0.2199,-0.2196,0,-0.2377,-0.2396,-0.2405,-0.2402,-0.2405,-0.2419,-0.2443,-0.2455,-0.2543,-0.2568,-0.2587,-0.2587,-0.2553,-0.2437,-0.2368,-0.2312,-0.2295,-0.2295,-0.2283,-0.2098,-0.2091,-0.2021,-0.2283,-0.2163,-0.2166,-0.2169,-0.217,-0.2172,-0.229,-0.227,-0.2278,-0.2262,-0.2273,-0.2265,-0.2225,-0.2275,-0.2284,-0.2296,-0.2389,-0.2361,-0.2307,-0.2189,-0.212,-0.1958,-0.2047,-0.1889,-0.1933,-0.1969,-0.1876,-0.2055,-0.1898,-0.19,-0.1901,-0.1903,-0.1904,0,-0.2161,-0.2149,-0.2132,-0.211,-0.2063,-0.2119,-0.2118,-0.206,-0.2018,-0.2093,-0.2092,-0.2089,-0.1943,-0.1902,-0.1754,-0.164,-0.1597,-0.1594,-0.161,-0.1576,-0.1742,-0.1704,-0.1457,-0.1458,-0.1458,-0.1458,-0.1458,-0.1458,-0.2091,-0.2027,-0.2018,-0.19,-0.1878,-0.1765,-0.1731,-0.1687,-0.1704,-0.1693,-0.1743,-0.1832,-0.1815,-0.1804,-0.1603,-0.1491,-0.1444,-0.1382,-0.1426,-0.1562,-0.1593,-0.1624,-0.1591,-0.1325,-0.1325,-0.1179,-0.1178,-0.1177]},{"header":{"parameterUnit":"m.s-1","parameterCategory":2,"la1":30.2991,"la2":30.254,"lo1":-89.0895,"lo2":-89.0444,"dy":0.0017,"dx":0.0017,"nx":28,"ny":28,"refTime":"2026-01-31T03:00:00:Z","depth":"0","parameterNumber":3,"parameterNumberName":"V-component_of_CURRENTS"},"data":[0,0,0,0,0,0,0,0,0,0,0,0,0,0,0,0,0,0,0,0,0,0,0,0,0,0,0,0,0,0,0,0,0,0,0,0,0,0,0,0,0,0,0,0,0,0,0,0,0,0,0,0,0,0,0,0,0,0,-0.0475,-0.0475,0,-0.0395,-0.0394,-0.0393,-0.0329,-0.0329,-0.0328,-0.0328,-0.0197,-0.0194,-0.0191,0,0,0,0,0,0,0,0,0,0,0,0,0,-0.0507,-0.0507,-0.0475,-0.0475,-0.0474,-0.0395,-0.0394,-0.0393,-0.0329,-0.0329,-0.0328,-0.0328,-0.0198,-0.0194,-0.0191,0,0,0,0,0,0,0,0,0,0,0,0,0,-0.0465,-0.0507,-0.0475,-0.0434,-0.043,-0.0395,-0.0394,-0.0392,-0.0329,-0.0329,-0.0328,-0.0327,-0.0199,-0.0195,-0.019,-0.0175,0,0,-0.0176,-0.0174,0,0,0,0,0,0,0,0,-0.0467,-0.0464,-0.0441,-0.0437,-0.0432,-0.0373,-0.0357,-0.0318,-0.0329,-0.0365,-0.0328,-0.0327,-0.0253,-0.0244,-0.0228,-0.0169,-0.0163,-0.0176,-0.0173,-0.0171,-0.017,0,0,0,0,0,0,0,-0.0471,-0.0466,-0.0441,-0.044,-0.0435,-0.0397,-0.0391,-0.0349,-0.0311,-0.0362,-0.0358,-0.0352,-0.025,-0.0233,-0.0225,-0.0161,-0.0176,-0.0172,-0.0169,-0.0167,-0.0086,-0.0086,0,0,0,0,0,0,-0.0489,-0.047,-0.0444,-0.0439,-0.0451,-0.0397,-0.039,-0.0391,-0.0313,-0.0301,-0.0353,-0.035,-0.0241,-0.023,-0.022,-0.02,-0.0171,-0.0167,-0.0164,-0.0085,-0.0086,-0.0086,0,0,0,0,0,0,-0.049,-0.0488,-0.0447,-0.0454,-0.0446,-0.0398,-0.0399,-0.039,-0.0372,-0.0307,-0.0294,-0.0345,-0.024,-0.0226,-0.019,-0.0194,-0.0165,-0.016,-0.0084,-0.0085,-0.0086,-0.0159,0,0,0,0,0,0,-0.0491,-0.0489,-0.0495,-0.0455,-0.0446,-0.0434,-0.04,-0.0389,-0.0371,-0.0365,-0.0296,-0.0283,-0.0238,-0.0197,-0.0186,-0.0188,-0.0157,-0.0084,-0.0085,-0.0086,-0.0156,-0.0162,-0.0168,0,0,0,0,0,-0.0493,-0.0506,-0.0496,-0.0492,-0.0457,-0.0434,-0.0426,-0.0388,-0.0371,-0.0368,-0.0324,-0.0285,-0.0196,-0.0194,-0.018,-0.0181,-0.0083,-0.0084,-0.0086,-0.0153,-0.0161,-0.0168,0,0,0,0,0,0,-0.0519,-0.05,-0.0487,-0.0493,-0.0469,-0.0425,-0.0419,-0.0395,-0.0358,-0.0352,-0.029,-0.0274,-0.0245,-0.0207,-0.0206,-0.0162,-0.0134,-0.0133,-0.019,-0.0197,-0.0203,-0.0213,-0.0153,0,0,0,0,0,-0.0531,-0.0538,-0.0508,-0.0512,-0.0504,-0.0464,-0.0449,-0.0426,-0.039,-0.0373,-0.0325,-0.0278,-0.024,-0.0215,-0.0176,-0.0149,-0.0108,-0.0142,-0.0148,-0.0153,-0.0153,-0.0104,-0.0106,-0.0091,-0.0091,-0.0091,0,0,-0.0542,-0.0532,-0.0535,-0.0519,-0.0496,-0.0494,-0.0453,-0.0439,-0.0433,-0.0364,-0.0341,-0.0298,-0.024,-0.0213,-0.0196,-0.0179,-0.0137,-0.0155,-0.016,-0.0157,-0.0106,-0.0107,-0.0108,-0.0092,-0.0092,-0.0091,0,0,-0.0571,-0.056,-0.0577,-0.0564,-0.0543,-0.0518,-0.0519,-0.048,-0.0458,-0.0434,-0.0385,-0.0348,-0.0288,-0.0247,-0.0219,-0.0234,-0.0174,-0.0223,-0.0254,-0.0208,-0.0208,-0.0208,-0.0164,-0.0159,-0.0222,-0.0223,-0.0223,0,-0.0585,-0.0602,-0.0576,-0.0588,-0.0583,-0.0535,-0.0548,-0.052,-0.0474,-0.0457,-0.0437,-0.0352,-0.0304,-0.0264,-0.027,-0.0247,-0.0211,-0.0232,-0.0215,-0.0214,-0.0213,-0.0167,-0.0161,-0.0226,-0.0226,-0.0225,-0.0225,0,-0.0627,-0.0638,-0.0646,-0.0648,-0.0638,-0.064,-0.0605,-0.0588,-0.0557,-0.0523,-0.048,-0.0415,-0.0361,-0.0344,-0.0309,-0.0279,-0.0254,-0.0232,-0.0198,-0.0219,-0.0169,-0.0162,-0.0231,-0.023,-0.0229,-0.0228,0,0,-0.0664,-0.0675,-0.0679,-0.0692,-0.0671,-0.067,-0.066,-0.0634,-0.0625,-0.0572,-0.0551,-0.0484,-0.0441,-0.0407,-0.0355,-0.0313,-0.0275,-0.0274,-0.027,-0.0232,-0.0171,-0.0129,-0.0116,-0.0251,-0.025,-0.0249,-0.0142,0,-0.0703,-0.0748,-0.0735,-0.0767,-0.0785,-0.0744,-0.0739,-0.0708,-0.0667,-0.0632,-0.0557,-0.0516,-0.0467,-0.0441,-0.0392,-0.0302,-0.0258,-0.0306,-0.0154,-0.015,-0.0111,-0.0107,-0.0085,0.0015,-0.0134,-0.0133,-0.0132,0,-0.0749,-0.0774,-0.0819,-0.0833,-0.0836,-0.0841,-0.0823,-0.0811,-0.0747,-0.0713,-0.0653,-0.0588,-0.0511,-0.0472,-0.0327,-0.036,-0.0276,-0.0206,-0.02,-0.0128,-0.0093,0.0014,0.0035,0.0194,-0.0119,-0.012,-0.0121,0,-0.0799,-0.0831,-0.0871,-0.0877,-0.0881,-0.0887,-0.088,-0.0835,-0.0825,-0.0759,-0.0737,-0.0635,-0.058,-0.0463,-0.0313,-0.0319,-0.0152,-0.014,-0.0023,-0.0018,0.0048,0.0056,0.0241,-0.0045,-0.0045,-0.0045,-0.0046,0,-0.085,-0.0881,-0.0899,-0.0923,-0.0962,-0.0941,-0.0958,-0.0933,-0.0892,-0.0881,-0.078,-0.0737,-0.0576,-0.0457,-0.0326,-0.0143,-0.0156,-0.0022,0.0015,0.0022,0.0026,0.0207,0.0277,-0.0041,-0.0042,-0.0043,-0.0044,0,-0.0898,-0.0911,-0.0961,-0.0982,-0.0989,-0.1017,-0.1021,-0.1027,-0.0978,-0.0958,-0.0938,-0.0809,-0.0648,-0.0476,-0.0277,-0.0157,0.0114,0.0074,0.0071,0.0106,0.0355,0.0419,0.0636,0.0726,0.022,0.0222,0.0223,0,-0.0928,-0.0959,-0.1011,-0.1042,-0.1054,-0.1085,-0.1102,-0.1076,-0.1075,-0.0994,-0.0984,-0.0833,-0.0714,-0.0398,-0.0163,0.0081,0.02,0.0242,0.0235,0.0384,0.0483,0.0518,0.058,0.0295,0.0296,0.0298,0.0299,0,-0.0978,-0.0996,-0.1039,-0.1102,-0.1139,-0.1181,-0.1198,-0.1212,-0.117,-0.1132,-0.1043,-0.094,-0.0634,-0.0345,-0.0028,0.0125,0.0367,0.0282,0.0445,0.0567,0.0612,0.071,0.0206,0.0313,0.0312,0.0311,0.031,0.031,-0.1007,-0.1052,-0.1102,-0.1161,-0.1211,-0.1258,-0.1276,-0.1278,-0.1269,-0.1194,-0.1094,-0.0913,-0.0499,-0.0043,0.014,0.0532,0.0505,0.0647,0.0715,0.0739,0.0824,0.035,0.049,0.0489,0.0489,0.0489,0.0489,0,-0.1034,-0.1084,-0.1149,-0.1222,-0.1277,-0.1287,-0.1321,-0.131,-0.1286,-0.1202,-0.1091,-0.0661,-0.0234,0.017,0.0714,0.0945,0.0992,0.1064,0.1128,0.1172,0.0767,0.0769,0.0965,0.0965,0.0965,0.0965,0.0965,0.0965,-0.105,-0.1117,-0.1155,-0.125,-0.1298,-0.1334,-0.1345,-0.1318,-0.1246,-0.1057,-0.0836,-0.0681,-0.0076,0.0797,0.1314,0.1367,0.1557,0.1547,0.1655,0.1382,0.1347,0.1315,0.1334,0.1646,0.1647,0.2028,0.2032,0.2035]}],[{"header":{"parameterUnit":"m.s-1","parameterCategory":2,"la1":30.2991,"la2":30.254,"lo1":-89.0895,"lo2":-89.0444,"dy":0.0017,"dx":0.0017,"nx":28,"ny":28,"refTime":"2026-01-31T03:00:00:Z","depth":"2","parameterNumber":2,"parameterNumberName":"U-component_of_CURRENTS"},"data":[0,0,0,0,0,0,0,0,0,0,0,0,0,0,0,0,0,0,0,0,0,0,0,0,0,0,0,0,0,0,0,0,0,0,0,0,0,0,0,0,0,0,0,0,0,0,0,0,0,0,0,0,0,0,0,0,0,0,-0.2644,-0.2645,0,-0.2671,-0.2672,-0.2672,-0.2646,-0.2645,-0.2644,-0.2643,-0.2658,-0.2659,-0.266,0,0,0,0,0,0,0,0,0,0,0,0,0,-0.258,-0.2581,-0.2644,-0.2645,-0.2645,-0.2671,-0.2672,-0.2672,-0.2646,-0.2645,-0.2644,-0.2643,-0.2658,-0.2659,-0.266,0,0,0,0,0,0,0,0,0,0,0,0,0,-0.2605,-0.2581,-0.2644,-0.2637,-0.2637,-0.2671,-0.2672,-0.2672,-0.2646,-0.2645,-0.2643,-0.2642,-0.2657,-0.2659,-0.2661,-0.2696,0,0,-0.2666,-0.2667,0,0,0,0,0,0,0,0,-0.2604,-0.2607,-0.2638,-0.2638,-0.2638,-0.2656,-0.2654,-0.268,-0.2646,-0.264,-0.2643,-0.2642,-0.2659,-0.266,-0.2665,-0.2697,-0.2698,-0.2666,-0.2667,-0.2668,-0.2668,0,0,0,0,0,0,0,-0.2602,-0.2606,-0.2653,-0.2638,-0.2638,-0.2636,-0.2638,-0.2659,-0.2654,-0.2641,-0.2639,-0.2646,-0.2658,-0.2663,-0.2665,-0.2698,-0.2666,-0.2668,-0.2669,-0.2669,-0.274,-0.2741,0,0,0,0,0,0,-0.2604,-0.2605,-0.2652,-0.2654,-0.262,-0.2639,-0.2641,-0.2649,-0.2654,-0.2654,-0.2647,-0.2645,-0.2661,-0.2663,-0.2666,-0.2692,-0.2668,-0.267,-0.2671,-0.274,-0.2741,-0.2741,0,0,0,0,0,0,-0.2603,-0.2608,-0.2651,-0.2631,-0.2637,-0.2641,-0.2651,-0.2651,-0.2652,-0.266,-0.2659,-0.2649,-0.266,-0.2663,-0.2682,-0.2693,-0.267,-0.2672,-0.2739,-0.274,-0.2741,-0.2757,0,0,0,0,0,0,-0.2601,-0.2608,-0.2612,-0.2632,-0.2638,-0.2672,-0.2653,-0.2652,-0.266,-0.2657,-0.2662,-0.2662,-0.2659,-0.268,-0.2684,-0.2695,-0.2673,-0.2738,-0.2739,-0.2741,-0.2755,-0.2758,-0.2761,0,0,0,0,0,-0.2599,-0.2613,-0.2612,-0.2617,-0.2644,-0.2673,-0.2676,-0.2673,-0.2661,-0.2668,-0.2669,-0.2661,-0.2692,-0.2682,-0.2687,-0.2699,-0.2737,-0.2739,-0.2741,-0.2754,-0.2758,-0.2761,0,0,0,0,0,0,-0.259,-0.2613,-0.2611,-0.2632,-0.2651,-0.2669,-0.2677,-0.2678,-0.2684,-0.2679,-0.2677,-0.2678,-0.2698,-0.2701,-0.269,-0.2724,-0.2712,-0.2715,-0.2721,-0.2724,-0.2727,-0.2722,-0.2675,0,0,0,0,0,-0.2591,-0.2602,-0.2628,-0.2642,-0.2653,-0.2665,-0.2675,-0.2677,-0.2689,-0.269,-0.2694,-0.27,-0.2713,-0.2719,-0.2731,-0.2756,-0.2743,-0.2766,-0.2769,-0.2772,-0.2771,-0.2763,-0.2765,-0.2748,-0.2748,-0.2748,0,0,-0.2591,-0.2605,-0.2611,-0.264,-0.2652,-0.2675,-0.2667,-0.2687,-0.2701,-0.2693,-0.2709,-0.2714,-0.2723,-0.2743,-0.2753,-0.2745,-0.2769,-0.2774,-0.2776,-0.2774,-0.2765,-0.2767,-0.2768,-0.2749,-0.2749,-0.2748,0,0,-0.2599,-0.2612,-0.2623,-0.2643,-0.2668,-0.2681,-0.2689,-0.2711,-0.2714,-0.2739,-0.2731,-0.2742,-0.2766,-0.277,-0.2776,-0.2807,-0.2786,-0.2812,-0.2822,-0.2814,-0.2815,-0.2816,-0.2794,-0.2793,-0.2811,-0.2811,-0.2812,0,-0.2596,-0.2614,-0.2632,-0.2653,-0.2668,-0.2685,-0.2704,-0.2722,-0.2745,-0.275,-0.2744,-0.277,-0.2778,-0.2798,-0.2806,-0.2813,-0.2798,-0.2806,-0.2816,-0.2817,-0.2817,-0.2795,-0.2793,-0.2812,-0.2812,-0.2812,-0.2812,0,-0.2613,-0.2629,-0.2642,-0.2669,-0.2692,-0.2712,-0.2742,-0.2759,-0.2766,-0.2777,-0.2796,-0.2805,-0.2815,-0.2824,-0.2826,-0.2837,-0.2821,-0.282,-0.2803,-0.2819,-0.2796,-0.2794,-0.2814,-0.2814,-0.2813,-0.2813,0,0,-0.2592,-0.2641,-0.2642,-0.2654,-0.2699,-0.2717,-0.2751,-0.278,-0.2791,-0.2812,-0.2821,-0.2847,-0.2842,-0.2849,-0.2851,-0.2848,-0.2839,-0.2835,-0.2835,-0.2807,-0.2807,-0.2722,-0.2712,-0.2835,-0.2835,-0.2835,-0.2787,0,-0.2592,-0.2623,-0.2653,-0.2681,-0.2699,-0.2734,-0.2762,-0.2792,-0.2813,-0.283,-0.2841,-0.2854,-0.2855,-0.2856,-0.2856,-0.285,-0.2835,-0.2852,-0.2802,-0.2801,-0.2717,-0.2707,-0.2488,-0.242,-0.2784,-0.2784,-0.2784,0,-0.2586,-0.2608,-0.2634,-0.2677,-0.2688,-0.2711,-0.2748,-0.2778,-0.2817,-0.2833,-0.2849,-0.2858,-0.287,-0.2862,-0.2849,-0.2857,-0.2831,-0.2819,-0.2817,-0.273,-0.2711,-0.2465,-0.2402,-0.278,-0.278,-0.2781,-0.2781,0,-0.2539,-0.2589,-0.2603,-0.262,-0.2679,-0.2692,-0.2721,-0.2768,-0.2787,-0.2828,-0.284,-0.2859,-0.2859,-0.2846,-0.2831,-0.2836,-0.2803,-0.2806,-0.27,-0.2693,-0.2493,-0.2469,-0.2777,-0.2777,-0.2777,-0.2778,-0.2778,0,-0.2516,-0.2524,-0.2579,-0.2586,-0.2601,-0.2658,-0.2675,-0.2713,-0.276,-0.2771,-0.2828,-0.2829,-0.2853,-0.2843,-0.2827,-0.2751,-0.2795,-0.2691,-0.2672,-0.2492,-0.247,-0.2776,-0.2777,-0.2776,-0.2776,-0.2777,-0.2777,0,-0.2449,-0.2492,-0.2506,-0.2561,-0.2577,-0.2582,-0.2637,-0.2643,-0.2712,-0.2727,-0.2739,-0.2798,-0.2782,-0.2793,-0.2768,-0.2725,-0.268,-0.2638,-0.2422,-0.2378,-0.2575,-0.2578,-0.2509,-0.2505,-0.2502,-0.25,-0.2498,0,-0.2412,-0.2413,-0.2463,-0.2462,-0.248,-0.2504,-0.2511,-0.2595,-0.2608,-0.2691,-0.2682,-0.2705,-0.2682,-0.2632,-0.2555,-0.2487,-0.2589,-0.2254,-0.2225,-0.2557,-0.2547,-0.2553,-0.2559,-0.1963,-0.1957,-0.1952,-0.1948,0,-0.2329,-0.2348,-0.2358,-0.2358,-0.2363,-0.2379,-0.2404,-0.2415,-0.2503,-0.2525,-0.2544,-0.2542,-0.2496,-0.2324,-0.2251,-0.2191,-0.2253,-0.2146,-0.2532,-0.2076,-0.2041,-0.2032,-0.2056,-0.1902,-0.1906,-0.191,-0.1912,-0.1914,-0.2247,-0.2229,-0.2239,-0.2225,-0.2238,-0.223,-0.2191,-0.2234,-0.224,-0.223,-0.2326,-0.2243,-0.2217,-0.1985,-0.1879,-0.1791,-0.1959,-0.1866,-0.1882,-0.1903,-0.1859,-0.1823,-0.1633,-0.1636,-0.1638,-0.1641,-0.1643,0,-0.2123,-0.2114,-0.2099,-0.2079,-0.2032,-0.209,-0.2088,-0.202,-0.1967,-0.1988,-0.1966,-0.1753,-0.162,-0.1611,-0.1393,-0.1355,-0.1346,-0.1302,-0.1283,-0.1329,-0.1369,-0.1299,-0.0924,-0.0922,-0.092,-0.0918,0,0,-0.2056,-0.1994,-0.1984,-0.1871,-0.1853,-0.174,-0.1707,-0.1642,-0.1614,-0.1524,-0.1464,-0.1541,-0.1566,-0.1249,-0.1167,-0.101,-0.1165,-0.0955,-0.1529,-0.1553,-0.1591,-0.1686,-0.1629,0,0,0,0,0]},{"header":{"parameterUnit":"m.s-1","parameterCategory":2,"la1":30.2991,"la2":30.254,"lo1":-89.0895,"lo2":-89.0444,"dy":0.0017,"dx":0.0017,"nx":28,"ny":28,"refTime":"2026-01-31T03:00:00:Z","depth":"2","parameterNumber":3,"parameterNumberName":"V-component_of_CURRENTS"},"data":[0,0,0,0,0,0,0,0,0,0,0,0,0,0,0,0,0,0,0,0,0,0,0,0,0,0,0,0,0,0,0,0,0,0,0,0,0,0,0,0,0,0,0,0,0,0,0,0,0,0,0,0,0,0,0,0,0,0,-0.0371,-0.0371,0,-0.0293,-0.0292,-0.0291,-0.023,-0.023,-0.023,-0.0229,-0.0103,-0.01,-0.0097,0,0,0,0,0,0,0,0,0,0,0,0,0,-0.0402,-0.0402,-0.0371,-0.037,-0.037,-0.0293,-0.0292,-0.0291,-0.023,-0.023,-0.0229,-0.0229,-0.0104,-0.01,-0.0096,0,0,0,0,0,0,0,0,0,0,0,0,0,-0.0361,-0.0402,-0.0371,-0.0332,-0.0328,-0.0294,-0.0292,-0.029,-0.0231,-0.023,-0.0229,-0.0229,-0.0105,-0.01,-0.0096,-0.008,0,0,-0.0082,-0.008,0,0,0,0,0,0,0,0,-0.0363,-0.0359,-0.0339,-0.0335,-0.033,-0.0273,-0.0256,-0.0218,-0.0231,-0.0265,-0.0229,-0.0229,-0.0157,-0.0148,-0.0132,-0.0074,-0.0068,-0.0082,-0.0079,-0.0077,-0.0076,0,0,0,0,0,0,0,-0.0366,-0.0362,-0.0338,-0.0338,-0.0333,-0.0296,-0.0289,-0.0249,-0.0213,-0.0262,-0.0258,-0.0253,-0.0154,-0.0137,-0.0129,-0.0066,-0.0082,-0.0078,-0.0075,-0.0073,0.0007,0.0006,0,0,0,0,0,0,-0.0384,-0.0365,-0.0341,-0.0336,-0.0348,-0.0296,-0.0289,-0.029,-0.0214,-0.0203,-0.0254,-0.025,-0.0145,-0.0134,-0.0124,-0.0106,-0.0077,-0.0073,-0.007,0.0007,0.0007,0.0006,0,0,0,0,0,0,-0.0385,-0.0383,-0.0344,-0.035,-0.0343,-0.0297,-0.0298,-0.0289,-0.0272,-0.0208,-0.0196,-0.0247,-0.0144,-0.013,-0.0096,-0.01,-0.0071,-0.0067,0.0008,0.0007,0.0006,-0.0066,0,0,0,0,0,0,-0.0387,-0.0384,-0.039,-0.0352,-0.0343,-0.0331,-0.0298,-0.0288,-0.0271,-0.0266,-0.0199,-0.0186,-0.0142,-0.0103,-0.0091,-0.0093,-0.0063,0.0009,0.0008,0.0007,-0.0062,-0.0069,-0.0074,0,0,0,0,0,-0.0388,-0.0402,-0.0391,-0.0388,-0.0354,-0.0332,-0.0324,-0.0287,-0.0272,-0.0269,-0.0227,-0.0188,-0.0101,-0.01,-0.0086,-0.0087,0.0009,0.0008,0.0007,-0.006,-0.0068,-0.0074,0,0,0,0,0,0,-0.0415,-0.0396,-0.0384,-0.039,-0.0367,-0.0323,-0.0318,-0.0294,-0.0259,-0.0254,-0.0193,-0.0178,-0.015,-0.0112,-0.0112,-0.0069,-0.0041,-0.0039,-0.0096,-0.0103,-0.0108,-0.0119,-0.0059,0,0,0,0,0,-0.0427,-0.0433,-0.0404,-0.0409,-0.0401,-0.0362,-0.0348,-0.0326,-0.0291,-0.0274,-0.0228,-0.0182,-0.0145,-0.012,-0.0081,-0.0056,-0.0015,-0.0049,-0.0055,-0.006,-0.006,-0.001,-0.0011,0.0002,0.0002,0.0002,0,0,-0.0438,-0.0429,-0.0431,-0.0415,-0.0393,-0.0391,-0.0352,-0.034,-0.0333,-0.0266,-0.0243,-0.0202,-0.0144,-0.0118,-0.0101,-0.0085,-0.0044,-0.0061,-0.0066,-0.0063,-0.0011,-0.0013,-0.0014,0.0001,0.0001,0.0001,0,0,-0.0467,-0.0457,-0.0473,-0.0461,-0.044,-0.0416,-0.0417,-0.038,-0.0358,-0.0335,-0.0288,-0.0251,-0.0193,-0.0152,-0.0124,-0.0139,-0.008,-0.0129,-0.0159,-0.0112,-0.0112,-0.0112,-0.007,-0.0065,-0.0128,-0.0128,-0.0128,0,-0.0482,-0.0498,-0.0473,-0.0484,-0.0479,-0.0433,-0.0446,-0.0418,-0.0373,-0.0357,-0.0339,-0.0255,-0.0209,-0.0168,-0.0174,-0.0151,-0.0116,-0.0137,-0.0119,-0.0118,-0.0117,-0.0073,-0.0067,-0.0131,-0.0131,-0.0131,-0.013,0,-0.0522,-0.0533,-0.0541,-0.0542,-0.0532,-0.0535,-0.05,-0.0484,-0.0455,-0.0421,-0.0379,-0.0316,-0.0263,-0.0246,-0.0213,-0.0181,-0.0158,-0.0136,-0.0102,-0.0122,-0.0075,-0.0068,-0.0137,-0.0135,-0.0134,-0.0133,0,0,-0.0559,-0.0569,-0.0573,-0.0586,-0.0565,-0.0564,-0.0554,-0.0528,-0.0519,-0.0468,-0.0446,-0.0381,-0.0341,-0.0307,-0.0256,-0.0213,-0.0177,-0.0177,-0.0172,-0.0137,-0.0075,-0.0038,-0.0026,-0.0152,-0.0151,-0.015,-0.0048,0,-0.0598,-0.0641,-0.0628,-0.0658,-0.0675,-0.0635,-0.0629,-0.0598,-0.0559,-0.0525,-0.0451,-0.0411,-0.0364,-0.034,-0.0291,-0.0203,-0.016,-0.0207,-0.0058,-0.0054,-0.002,-0.0016,-0.0029,0.0062,-0.0041,-0.0039,-0.0038,0,-0.0643,-0.0666,-0.0709,-0.0721,-0.0724,-0.0729,-0.0711,-0.0698,-0.0635,-0.0603,-0.0544,-0.048,-0.0405,-0.0368,-0.0226,-0.0258,-0.0177,-0.0109,-0.0103,-0.0036,-0.0003,0.0068,0.008,-0.0025,-0.0026,-0.0027,-0.0028,0,-0.0692,-0.0722,-0.0761,-0.0766,-0.0769,-0.0774,-0.0768,-0.0723,-0.0713,-0.0648,-0.0627,-0.0525,-0.0474,-0.0358,-0.0214,-0.0219,-0.0057,-0.0043,0.0067,0.0071,0.0107,0.0112,0.0051,0.0051,0.0051,0.0051,0.005,0,-0.0742,-0.0772,-0.0789,-0.0812,-0.0849,-0.0828,-0.0845,-0.0821,-0.078,-0.0768,-0.067,-0.0629,-0.047,-0.0353,-0.0226,-0.0051,-0.0061,0.0067,0.0103,0.0081,0.0082,0.0044,0.0042,0.0054,0.0053,0.0053,0.0052,0,-0.0791,-0.0802,-0.085,-0.087,-0.0877,-0.0905,-0.0908,-0.0914,-0.0866,-0.0847,-0.0828,-0.0702,-0.0546,-0.0377,-0.0182,-0.0066,0.0096,0.0158,0.0119,0.0148,0.0193,0.0186,0.0292,0.0294,0.0296,0.0297,0.0299,0,-0.082,-0.0851,-0.0901,-0.0932,-0.0944,-0.0974,-0.0991,-0.0964,-0.0963,-0.0885,-0.0875,-0.0729,-0.0613,-0.0306,-0.008,0.0156,0.0148,0.0278,0.027,0.0196,0.022,0.021,0.02,0.0287,0.0288,0.0289,0.029,0,-0.087,-0.0888,-0.093,-0.0994,-0.103,-0.107,-0.1087,-0.11,-0.1058,-0.1019,-0.0934,-0.0833,-0.054,-0.0272,0.0033,0.0171,0.0241,0.0305,0.0253,0.0224,0.0199,0.022,0.0209,0.0298,0.0297,0.0296,0.0296,0.0296,-0.0901,-0.0945,-0.0995,-0.1054,-0.1103,-0.1147,-0.1165,-0.1159,-0.1147,-0.1052,-0.0968,-0.0768,-0.0531,-0.0074,0.0131,0.0337,0.0327,0.039,0.0384,0.0378,0.0355,0.0335,0.0455,0.0455,0.0455,0.0455,0.0455,0,-0.0928,-0.098,-0.1044,-0.1116,-0.1167,-0.118,-0.1211,-0.1183,-0.1149,-0.1031,-0.0909,-0.0613,-0.0319,-0.0065,0.0267,0.0446,0.0425,0.0475,0.0411,0.0403,0.0395,0.037,0.0476,0.0476,0.0476,0.0477,0,0,-0.0945,-0.101,-0.1047,-0.1141,-0.1191,-0.122,-0.123,-0.1171,-0.1069,-0.0927,-0.0766,-0.0568,-0.0279,-0.0043,0.0172,0.0341,0.0326,0.0358,0.0326,0.0218,0.0209,0.0336,0.0288,0,0,0,0,0]}],[{"header":{"parameterUnit":"m.s-1","parameterCategory":2,"la1":30.2991,"la2":30.254,"lo1":-89.0895,"lo2":-89.0444,"dy":0.0017,"dx":0.0017,"nx":28,"ny":28,"refTime":"2026-01-31T03:00:00:Z","depth":"4","parameterNumber":2,"parameterNumberName":"U-component_of_CURRENTS"},"data":[0,0,0,0,0,0,0,0,0,0,0,0,0,0,0,0,0,0,0,0,0,0,0,0,0,0,0,0,0,0,0,0,0,0,0,0,0,0,0,0,0,0,0,0,0,0,0,0,0,0,0,0,0,0,0,0,0,0,-0.1818,-0.1819,0,-0.1887,-0.1888,-0.1889,-0.193,-0.1931,-0.1931,-0.1931,-0.2023,-0.2025,-0.2027,0,0,0,0,0,0,0,0,0,0,0,0,0,-0.1726,-0.1727,-0.1818,-0.1819,-0.182,-0.1887,-0.1888,-0.1889,-0.193,-0.1931,-0.1931,-0.1932,-0.2022,-0.2024,-0.2027,0,0,0,0,0,0,0,0,0,0,0,0,0,-0.1776,-0.1728,-0.1818,-0.185,-0.1854,-0.1887,-0.1888,-0.1889,-0.193,-0.1931,-0.1931,-0.1932,-0.2021,-0.2024,-0.2027,-0.2036,0,0,-0.2037,-0.2038,0,0,0,0,0,0,0,0,-0.1773,-0.1779,-0.1844,-0.1848,-0.1852,-0.1902,-0.1889,-0.194,-0.193,-0.1899,-0.1931,-0.1932,-0.1985,-0.1991,-0.2,-0.204,-0.2044,-0.2037,-0.2039,-0.204,-0.2041,0,0,0,0,0,0,0,-0.177,-0.1776,-0.1844,-0.1845,-0.185,-0.1863,-0.187,-0.1899,-0.1937,-0.1902,-0.1906,-0.1916,-0.1987,-0.1997,-0.2003,-0.2046,-0.2037,-0.204,-0.2042,-0.2043,-0.2171,-0.2173,0,0,0,0,0,0,-0.1764,-0.1773,-0.1841,-0.1846,-0.1815,-0.1864,-0.1872,-0.1884,-0.1937,-0.1946,-0.1915,-0.1918,-0.1992,-0.1999,-0.2006,-0.2091,-0.204,-0.2043,-0.2045,-0.217,-0.2172,-0.2173,0,0,0,0,0,0,-0.1762,-0.1769,-0.1839,-0.1812,-0.1822,-0.1865,-0.1878,-0.1885,-0.1926,-0.1947,-0.1956,-0.1953,-0.1992,-0.2002,-0.206,-0.2092,-0.2045,-0.2048,-0.2168,-0.217,-0.2172,-0.2214,0,0,0,0,0,0,-0.1759,-0.1768,-0.179,-0.1812,-0.1824,-0.1879,-0.1878,-0.1886,-0.1931,-0.1935,-0.1982,-0.1989,-0.1993,-0.2055,-0.2063,-0.2095,-0.205,-0.2166,-0.2169,-0.2172,-0.2211,-0.2217,-0.2223,0,0,0,0,0,-0.1755,-0.1779,-0.179,-0.18,-0.1847,-0.1881,-0.1889,-0.1919,-0.1932,-0.1957,-0.1989,-0.1989,-0.2078,-0.2059,-0.2068,-0.2102,-0.2165,-0.2168,-0.2172,-0.2208,-0.2216,-0.2223,0,0,0,0,0,0,-0.1756,-0.1786,-0.1799,-0.1834,-0.1865,-0.1889,-0.192,-0.1937,-0.1982,-0.1996,-0.2011,-0.2021,-0.2082,-0.2089,-0.2067,-0.2147,-0.2121,-0.2126,-0.2145,-0.2153,-0.2159,-0.2149,-0.2053,0,0,0,0,0,-0.1764,-0.179,-0.1819,-0.1851,-0.1869,-0.19,-0.1924,-0.1945,-0.1979,-0.2001,-0.2033,-0.2067,-0.2097,-0.2124,-0.2151,-0.2199,-0.2181,-0.2226,-0.2233,-0.2238,-0.2236,-0.2235,-0.224,-0.2185,-0.2184,-0.2184,0,0,-0.1775,-0.1795,-0.1812,-0.1853,-0.1881,-0.1914,-0.1917,-0.1963,-0.1997,-0.2004,-0.2073,-0.2095,-0.2115,-0.2166,-0.2194,-0.2181,-0.2244,-0.2242,-0.2246,-0.2242,-0.2239,-0.2244,-0.2249,-0.2187,-0.2186,-0.2186,0,0,-0.1795,-0.1828,-0.1852,-0.1881,-0.1928,-0.1947,-0.1967,-0.2012,-0.2043,-0.2102,-0.2113,-0.2154,-0.2212,-0.2226,-0.2239,-0.2298,-0.2276,-0.2315,-0.2342,-0.2341,-0.2345,-0.2348,-0.2327,-0.2328,-0.2319,-0.2319,-0.2319,0,-0.1809,-0.1839,-0.1867,-0.1897,-0.1926,-0.1965,-0.1998,-0.2035,-0.2095,-0.212,-0.2135,-0.2211,-0.2235,-0.2276,-0.23,-0.2311,-0.2299,-0.231,-0.2347,-0.235,-0.2353,-0.233,-0.2331,-0.2321,-0.2321,-0.2321,-0.232,0,-0.1833,-0.1873,-0.1894,-0.1941,-0.1978,-0.2017,-0.2063,-0.2111,-0.2154,-0.2181,-0.2247,-0.2276,-0.2315,-0.2335,-0.234,-0.2376,-0.2357,-0.2352,-0.2323,-0.236,-0.2335,-0.2335,-0.2325,-0.2324,-0.2323,-0.2322,0,0,-0.1817,-0.1895,-0.1905,-0.1935,-0.2005,-0.2032,-0.2099,-0.2154,-0.2193,-0.2255,-0.2296,-0.2356,-0.2369,-0.2384,-0.2396,-0.2404,-0.2418,-0.2394,-0.2392,-0.2363,-0.2402,-0.2239,-0.2223,-0.2419,-0.2419,-0.242,-0.2375,0,-0.1827,-0.1884,-0.1925,-0.1989,-0.2021,-0.208,-0.2132,-0.2191,-0.2243,-0.2296,-0.2331,-0.2378,-0.2388,-0.2412,-0.2424,-0.2425,-0.2421,-0.2429,-0.2379,-0.2377,-0.2219,-0.2218,-0.2421,-0.2374,-0.2374,-0.2374,-0.2374,0,-0.1824,-0.1865,-0.1927,-0.2007,-0.2028,-0.2077,-0.2159,-0.2211,-0.2286,-0.2326,-0.2374,-0.2401,-0.244,-0.2435,-0.2444,-0.2451,-0.243,-0.242,-0.2418,-0.2248,-0.2212,-0.2331,-0.2373,-0.2373,-0.2373,-0.2373,-0.2373,0,-0.1772,-0.1862,-0.1911,-0.1941,-0.2038,-0.2085,-0.214,-0.2223,-0.2262,-0.2345,-0.2373,-0.2422,-0.2444,-0.2443,-0.2436,-0.2445,-0.2419,-0.2424,-0.225,-0.2238,-0.2382,-0.2379,-0.2408,-0.2408,-0.2408,-0.2408,-0.2408,0,-0.1741,-0.1785,-0.1899,-0.1924,-0.1986,-0.2066,-0.2131,-0.2194,-0.2271,-0.2296,-0.2383,-0.2389,-0.2449,-0.2444,-0.2433,-0.2327,-0.2413,-0.2239,-0.221,-0.2401,-0.2401,-0.2381,-0.2379,-0.2406,-0.2406,-0.2407,-0.2407,0,-0.1665,-0.1744,-0.1806,-0.1922,-0.1963,-0.2006,-0.2115,-0.2143,-0.2241,-0.2274,-0.2299,-0.2369,-0.2353,-0.2379,-0.2366,-0.2293,-0.2232,-0.2172,-0.2362,-0.2347,-0.2054,-0.2054,-0.1965,-0.1959,-0.1953,-0.1949,-0.1945,0,-0.1623,-0.1651,-0.1785,-0.1818,-0.1876,-0.1957,-0.1995,-0.2111,-0.2132,-0.2229,-0.2216,-0.225,-0.2273,-0.2117,-0.217,-0.211,-0.2088,-0.2041,-0.2055,-0.2024,-0.2006,-0.2016,-0.2023,-0.1937,-0.1935,-0.1934,-0.1933,0,-0.1539,-0.1606,-0.1655,-0.1725,-0.1783,-0.1834,-0.1902,-0.1903,-0.2009,-0.2116,-0.2066,-0.2042,-0.2011,-0.1992,-0.1952,-0.1918,-0.2068,-0.1985,-0.1997,-0.2009,-0.1989,-0.1979,-0.1993,-0.1914,-0.1917,-0.1919,-0.192,0,-0.1473,-0.1485,-0.156,-0.1601,-0.1674,-0.1681,-0.1738,-0.1747,-0.1785,-0.1895,-0.1867,-0.1908,-0.1979,-0.1889,-0.1858,-0.1804,-0.1779,-0.1723,-0.1748,-0.1769,-0.1725,-0.1673,-0.1457,0,0,0,0,0,-0.1395,-0.139,-0.1423,-0.1462,-0.1526,-0.1565,-0.1654,-0.171,-0.1814,-0.1722,-0.179,-0.1751,-0.1692,-0.1719,-0.162,-0.177,-0.1793,-0.1647,-0.1745,-0.1812,-0.1833,-0.18,0,0,0,0,0,0,-0.134,-0.1371,-0.1375,-0.1336,-0.1331,-0.1381,-0.1432,-0.1505,-0.1467,-0.1578,-0.1553,-0.1635,-0.1607,-0.1716,-0.158,-0.1586,-0.1608,-0.1683,-0.1678,-0.18,-0.1819,-0.1836,-0.181,0,0,0,0,0]},{"header":{"parameterUnit":"m.s-1","parameterCategory":2,"la1":30.2991,"la2":30.254,"lo1":-89.0895,"lo2":-89.0444,"dy":0.0017,"dx":0.0017,"nx":28,"ny":28,"refTime":"2026-01-31T03:00:00:Z","depth":"4","parameterNumber":3,"parameterNumberName":"V-component_of_CURRENTS"},"data":[0,0,0,0,0,0,0,0,0,0,0,0,0,0,0,0,0,0,0,0,0,0,0,0,0,0,0,0,0,0,0,0,0,0,0,0,0,0,0,0,0,0,0,0,0,0,0,0,0,0,0,0,0,0,0,0,0,0,-0.0195,-0.0195,0,-0.0145,-0.0145,-0.0144,-0.0103,-0.0103,-0.0103,-0.0102,-0.0008,-0.0006,-0.0004,0,0,0,0,0,0,0,0,0,0,0,0,0,-0.0207,-0.0207,-0.0195,-0.0195,-0.0194,-0.0146,-0.0145,-0.0144,-0.0103,-0.0103,-0.0103,-0.0102,-0.0009,-0.0006,-0.0003,0,0,0,0,0,0,0,0,0,0,0,0,0,-0.0182,-0.0207,-0.0195,-0.0169,-0.0167,-0.0146,-0.0145,-0.0144,-0.0103,-0.0103,-0.0103,-0.0102,-0.001,-0.0006,-0.0003,0.001,0,0,0.0007,0.0009,0,0,0,0,0,0,0,0,-0.0184,-0.0182,-0.0174,-0.0171,-0.0168,-0.0132,-0.0114,-0.0091,-0.0103,-0.0126,-0.0102,-0.0102,-0.0047,-0.004,-0.003,0.0014,0.0018,0.0008,0.001,0.0011,0.0012,0,0,0,0,0,0,0,-0.0186,-0.0183,-0.0174,-0.0173,-0.017,-0.0144,-0.014,-0.0109,-0.0087,-0.0124,-0.0121,-0.0118,-0.0044,-0.0033,-0.0027,0.002,0.0008,0.0011,0.0013,0.0014,0.0073,0.0072,0,0,0,0,0,0,-0.0198,-0.0185,-0.0175,-0.0172,-0.0177,-0.0144,-0.014,-0.0142,-0.0088,-0.008,-0.0119,-0.0117,-0.0039,-0.0031,-0.0024,-0.0013,0.0011,0.0014,0.0016,0.0073,0.0073,0.0072,0,0,0,0,0,0,-0.0199,-0.0198,-0.0177,-0.0179,-0.0174,-0.0145,-0.0148,-0.0142,-0.0133,-0.0085,-0.0076,-0.0117,-0.0039,-0.0029,-0.0004,-0.0009,0.0016,0.0019,0.0074,0.0073,0.0073,0.0013,0,0,0,0,0,0,-0.0199,-0.0199,-0.0206,-0.018,-0.0175,-0.0172,-0.0148,-0.0141,-0.0133,-0.013,-0.008,-0.0071,-0.0038,-0.001,-0.0001,-0.0004,0.0022,0.0075,0.0074,0.0073,0.0016,0.0011,0.0006,0,0,0,0,0,-0.02,-0.0212,-0.0207,-0.0205,-0.0186,-0.0173,-0.0168,-0.0144,-0.0133,-0.0134,-0.0103,-0.0073,-0.0009,-0.0008,0.0003,0.0001,0.0075,0.0074,0.0073,0.0018,0.0012,0.0006,0,0,0,0,0,0,-0.0219,-0.0209,-0.0202,-0.021,-0.0197,-0.0167,-0.0167,-0.0151,-0.0127,-0.0125,-0.0078,-0.0066,-0.0047,-0.0017,-0.0017,0.0015,0.0038,0.0039,-0.0008,-0.0013,-0.0018,-0.0026,0.0024,0,0,0,0,0,-0.0229,-0.0237,-0.0219,-0.0226,-0.0223,-0.0197,-0.0189,-0.0175,-0.0151,-0.014,-0.0106,-0.0072,-0.0043,-0.0025,0.0004,0.0023,0.0057,0.0028,0.0023,0.0019,0.0019,0.0065,0.0065,0.0069,0.0069,0.0069,0,0,-0.0238,-0.0234,-0.0238,-0.0231,-0.0218,-0.022,-0.0191,-0.0187,-0.0185,-0.0133,-0.0121,-0.0088,-0.0043,-0.0025,-0.0013,0.0001,0.0033,0.0017,0.0013,0.0016,0.0064,0.0064,0.0064,0.0068,0.0068,0.0068,0,0,-0.0261,-0.0258,-0.0273,-0.0267,-0.0257,-0.0241,-0.0244,-0.0221,-0.0207,-0.0194,-0.0157,-0.0129,-0.0088,-0.0053,-0.0031,-0.0045,0.0004,-0.0038,-0.0063,-0.0018,-0.0018,-0.0017,0.0016,0.002,-0.0037,-0.0037,-0.0037,0,-0.0273,-0.0289,-0.0274,-0.0285,-0.0285,-0.0256,-0.0268,-0.0251,-0.0222,-0.0211,-0.02,-0.0136,-0.01,-0.0066,-0.0073,-0.0054,-0.0025,-0.0045,-0.0024,-0.0023,-0.0021,0.0014,0.0019,-0.004,-0.004,-0.0039,-0.0039,0,-0.0304,-0.0318,-0.0326,-0.0332,-0.0329,-0.0335,-0.0314,-0.0307,-0.0289,-0.0265,-0.0235,-0.0186,-0.0145,-0.0131,-0.0106,-0.0077,-0.006,-0.0038,-0.001,-0.0025,0.0012,0.0019,-0.0044,-0.0043,-0.0042,-0.0042,0,0,-0.0327,-0.0345,-0.0349,-0.0363,-0.0356,-0.0359,-0.0357,-0.0342,-0.0339,-0.0304,-0.0289,-0.0239,-0.0208,-0.0181,-0.0139,-0.0101,-0.0068,-0.0071,-0.0067,-0.0039,0.0023,0.0022,0.0029,-0.0043,-0.0042,-0.0041,0.0041,0,-0.0356,-0.0394,-0.039,-0.0421,-0.0437,-0.0415,-0.0416,-0.0399,-0.0374,-0.0351,-0.0293,-0.0265,-0.0227,-0.0209,-0.0165,-0.009,-0.0052,-0.0093,0.0035,0.0039,0.0038,0.0037,-0.0038,0.0046,0.0048,0.0049,0.005,0,-0.0386,-0.0409,-0.0449,-0.0471,-0.0475,-0.0488,-0.0484,-0.048,-0.0437,-0.0416,-0.037,-0.0321,-0.0258,-0.0228,-0.0105,-0.0133,-0.0064,-0.0006,-0.0001,0.0025,0.005,0.0068,0.0063,0.0062,0.0061,0.006,0.0059,0,-0.0413,-0.0449,-0.0486,-0.0494,-0.051,-0.0524,-0.0528,-0.0502,-0.05,-0.0454,-0.0442,-0.0357,-0.0318,-0.0215,-0.0098,-0.0099,0.0038,0.0055,0.0119,0.012,0.0124,0.0123,0.0139,0.0139,0.0139,0.0138,0.0138,0,-0.0441,-0.0472,-0.0507,-0.0528,-0.057,-0.0565,-0.0592,-0.058,-0.0558,-0.0553,-0.0479,-0.0446,-0.0314,-0.0218,-0.0107,0.0025,0.0035,0.0116,0.0143,0.0095,0.009,0.0128,0.0126,0.0141,0.0141,0.014,0.014,0,-0.0461,-0.0484,-0.0533,-0.0571,-0.0587,-0.0618,-0.0647,-0.0658,-0.0632,-0.0621,-0.0609,-0.0512,-0.0385,-0.0247,-0.0079,0.0004,0.0137,0.0181,0.0111,0.0133,0.0191,0.0185,0.0261,0.0261,0.0262,0.0262,0.0263,0,-0.0472,-0.0501,-0.0571,-0.0607,-0.063,-0.0674,-0.0701,-0.0698,-0.0701,-0.0652,-0.0642,-0.0534,-0.0452,-0.021,-0.0072,0.0134,0.0162,0.0222,0.0213,0.0185,0.0205,0.0197,0.0191,0.0264,0.0264,0.0264,0.0264,0,-0.0491,-0.0523,-0.0565,-0.0641,-0.0691,-0.0738,-0.077,-0.0777,-0.0758,-0.0743,-0.0649,-0.0524,-0.0386,-0.0205,-0.0053,0.0096,0.018,0.0229,0.0228,0.022,0.019,0.0207,0.02,0.0266,0.0266,0.0266,0.0266,0,-0.0503,-0.0542,-0.0602,-0.0665,-0.0733,-0.0775,-0.0792,-0.0779,-0.0774,-0.0711,-0.0681,-0.0523,-0.0437,-0.0225,-0.0077,0.0061,0.0097,0.0139,0.0144,0.0144,0.0083,0.0026,0.0077,0,0,0,0,0,-0.0507,-0.0552,-0.0617,-0.0688,-0.0756,-0.0788,-0.0823,-0.0825,-0.0811,-0.0746,-0.0708,-0.0569,-0.0345,-0.0247,-0.0106,-0.0078,0.0107,0.0089,0.0154,0.0277,0.0275,0.0223,0,0,0,0,0,0,-0.0513,-0.0577,-0.0613,-0.0689,-0.0737,-0.0801,-0.0824,-0.0814,-0.0764,-0.0729,-0.0604,-0.054,-0.032,-0.0422,-0.0104,-0.0064,-0.0004,0.0194,0.0196,0.0278,0.0276,0.0274,0.0221,0,0,0,0,0]}]]